Miscellaneous Local Product
Issued by NWS North Platte, NE

Home | Current Version | Previous Version | Graphics & Text | Print | Product List | Glossary On
Versions: 1 2 3 4 5 6 7 8 9 10 11 12 13 14 15 16 17 18 19 20 21 22 23 24 25 26 27 28 29 30 31 32 33 34 35 36 37 38 39 40 41 42 43 44 45 46 47 48 49 50
000
AXUS43 KLBF 262310
MISLBF


WESTERN AND NORTH CENTRAL NEBRASKA HOURLY WEATHER ROUNDUP
NATIONAL WEATHER SERVICE NORTH PLATTE NE
600 PM CDT FRI MAY 26 2017

NOTE: "FAIR" INDICATES FEW OR NO CLOUDS BELOW 12,000 FEET WITH NO
SIGNIFICANT WEATHER AND/OR OBSTRUCTIONS TO VISIBILITY.

NOTE: STATIONS NOT REPORTING VARIABLES SUCH AS SKY/WEATHER OR
PRESSURE ARE PROVIDED BY RAWS AND APRS NETWORKS AND ARE NOT UNDER
NATIONAL WEATHER SERVICE QUALITY CONTROL.

...OBSERVATIONS IN AND NEAR THE EASTERN PANHANDLE OF NEBRASKA...

CITY           SKY/WX    TMP DP  RH WIND       PRES   REMARKS
PINE RIDGE     LGT RAIN  65  39  38 NW6       29.91R
GORDON         CLOUDY    65  38  36 CALM      29.91R
CHADRON        LGT RAIN  60  46  59 N3        29.90R
ALLIANCE       LGT RAIN  60  48  64 NW8       29.91R
SIDNEY         CLOUDY    66  46  48 SE18G25   29.88F
CRESCENT LAKE    N/A     66  42  41 S3          N/A
$$

...OBSERVATIONS IN NORTHERN NEBRASKA AND FAR SOUTHERN SOUTH DAKOTA...

CITY           SKY/WX    TMP DP  RH WIND       PRES   REMARKS
WINNER         FAIR      72  42  34 NW9       29.85S
VALENTINE      SUNNY     72  37  28 NE9       29.87F
THEDFORD       SUNNY     73  43  34 E6        29.89S
AINSWORTH      SUNNY     69  43  38 NW5       29.88F
O`NEILL        SUNNY     72  41  33 NW7       29.88S
ORD            SUNNY     74  42  31 NE5       29.85S
BROKEN BOW     SUNNY     73  45  36 SE8       29.87S
VALENTINE NWR    N/A     70  40  33 NE6         N/A
HALSEY           N/A     73  40  31 E3G13       N/A
BUTTE            N/A     71  41  34 W12         N/A
CHAMBERS         N/A     75  46  35 W3          N/A
EWING            N/A     73  47  39 N3          N/A
$$

...OBSERVATIONS IN SOUTHWEST NEBRASKA AND FAR NORTHEAST COLORADO...

CITY           SKY/WX    TMP DP  RH WIND       PRES   REMARKS
WRAY           FAIR      68  48  49 SE5       29.89R
IMPERIAL       CLOUDY    69  47  45 S10       29.87R
OGALLALA       CLOUDY    72  44  36 SE7       29.87S
NORTH PLATTE   SUNNY     75  46  35 E8        29.86S
MCCOOK         SUNNY     76  47  35 E10       29.85S
LEXINGTON      SUNNY     74  51  44 NE6       29.86S
STAPLETON        N/A     72  44  36 E3          N/A
GOTHENBURG       N/A     74  42  31 SE6         N/A
CALLAWAY         N/A     73  46  38 SE5         N/A
$$

...OBSERVATIONS IN CENTRAL LINCOLN COUNTY AREA...

CITY           SKY/WX    TMP DP  RH WIND       PRES   REMARKS
N.P. AIRPORT   SUNNY     75  46  35 E8        29.86S
N.P. DOWNTOWN    N/A     74  47  38 E5G12       N/A
N.P. SOUTHEAST   N/A     75  45  34 MISG        N/A
N.P. HILLCREST   N/A     73  44  36 SE7         N/A
$$

...SOME OBSERVATIONS FROM AROUND THE REGION...

CITY           SKY/WX    TMP DP  RH WIND       PRES   REMARKS
DENVER         CLOUDY    74  47  38 S18G24    29.80F
LIMON          CLOUDY    72  46  39 S28G35    29.85F
ASPEN          CLOUDY    67  16  14 SW9G21    29.93F
LARAMIE        CLOUDY    51  44  77 MISG      29.94R
CASPER         LGT RAIN  46  43  89 E14       29.93R
CHEYENNE       CLOUDY    60  47  61 SE9       29.87F
SCOTTSBLUFF    LGT RAIN  61  49  64 NE16      29.88F
GRAND ISLAND   SUNNY     77  47  34 NE5       29.85S
OMAHA          MOSUNNY   81  49  32 NW8       29.80S
SIOUX FALLS    MOSUNNY   72  44  36 NW15      29.82S
PIERRE         MOSUNNY   70  36  28 NW9       29.82S
RAPID CITY     CLOUDY    61  39  44 S7        29.91R
BISMARCK       CLOUDY    67  39  35 NW13G23   29.80R
KANSAS CITY    MOSUNNY   83  64  52 N7        29.77S
HILL CITY      SUNNY     79  52  38 SE8       29.85S
WICHITA        MOSUNNY   86  62  44 NE9       29.78S
DODGE CITY     SUNNY     79  56  45 E6        29.85S
OKLAHOMA CITY  MOSUNNY   87  65  47 VRB3      29.75S
DALLAS         CLOUDY    90  74  59 S17G28    29.74S HX  99
AMARILLO       SUNNY     86  45  23 S9        29.87F
$$




USA.gov is the U.S. government's official web portal to all federal, state and local government web resources and services.